Weather History for Tillamook, OR

Change the Weather History Date:

Monday, December 17, 2012

  Actual Average (KMMV) Record (KMMV)
Temperature  
Mean Temperature 44 °F 39 °F  
Max Temperature 50 °F 45 °F 60 °F (1905)
Min Temperature 37 °F 33 °F 6 °F (1964)
Degree Days  
Heating Degree Days 22 26  
Month to date heating degree days 420  
Since 1 July heating degree days 1642  
Cooling Degree Days 0 0  
Month to date cooling degree days 0  
Year to date cooling degree days 215  
Moisture  
Dew Point 38 °F    
Average Humidity 80    
Maximum Humidity 93    
Minimum Humidity 62    
Precipitation  
Precipitation 0.18 in 0.21 in 2.20 in (1999)
Month to date precipitation 3.33  
Year to date precipitation 36.98  
Snow  
Snow 0.00 in - - ()
Month to date snowfall  
Since 1 July snowfall  
Snow Depth -    
Sea Level Pressure  
Sea Level Pressure 29.71 in    
Wind  
Wind Speed 20 mph (SW)    
Max Wind Speed 37 mph    
Max Gust Speed 52 mph    
Visibility 9 miles    
Events Rain    
T = Trace of Precipitation, MM = Missing Value Source: NWS Daily Summary

Daily Weather History Graph

Daily Weather History Graph

Search for Another Location

Airport:

Trip Planner

Search our weather history database for the weather conditions in past years. The results will help you decide how hot, cold, wet, or windy it might be!

Date:

Astronomy

Dec. 17, 2012 Rise Set
Actual Time 8:50 AM MST 5:33 PM MST
Civil Twilight 8:15 AM MST 6:07 PM MST
Nautical Twilight 7:38 AM MST 6:45 PM MST
Astronomical Twilight 7:02 AM MST 7:21 PM MST
Moon 11:49 AM MST 11:15 PM MST
Length of Visible Light 9h 51m
Length of Day
8h 43m
Waxing Crescent, 25% of the Moon is Illuminated
Dec 17
Waxing Crescent
Dec 19
First Quarter
Dec 28
Full
Jan 4
Last Quarter
Jan 11
New

Hourly Weather History & Observations

Time (MST) Temp. Windchill Dew Point Humidity Pressure Visibility Wind Dir Wind Speed Gust Speed Precip Events Conditions
12:15 AM 50.0 °F - 42.8 °F 76% 29.19 in 10.0 mi SW 27.6 mph 51.8 mph N/A   Overcast
12:35 AM 50.0 °F - 42.8 °F 76% 29.20 in 7.0 mi SW 33.4 mph 49.5 mph N/A   Overcast
12:55 AM 50.0 °F - 42.8 °F 76% 29.20 in 7.0 mi SW 28.8 mph 50.6 mph N/A   Overcast
1:15 AM 50.0 °F - 42.8 °F 76% 29.21 in 5.0 mi SW 34.5 mph 44.9 mph N/A Rain Light Rain
1:35 AM 48.2 °F - 44.6 °F 87% 29.24 in 4.0 mi SW 36.8 mph 51.8 mph 0.01 in Rain Light Rain
1:55 AM 50.0 °F - 42.8 °F 76% 29.26 in 7.0 mi SW 26.5 mph 39.1 mph 0.01 in   Overcast
2:15 AM 50.0 °F - 42.8 °F 76% 29.28 in 7.0 mi SW 27.6 mph 38.0 mph N/A Rain Light Rain
2:35 AM 48.2 °F - 42.8 °F 82% 29.31 in 7.0 mi WSW 27.6 mph 46.0 mph N/A   Overcast
2:55 AM 48.2 °F - 42.8 °F 82% 29.34 in 7.0 mi WSW 20.7 mph 47.2 mph 0.01 in   Overcast
3:15 AM 48.2 °F - 44.6 °F 87% 29.37 in 4.0 mi WSW 25.3 mph 33.4 mph 0.04 in Rain Light Rain
3:35 AM 48.2 °F - 42.8 °F 82% 29.39 in 7.0 mi WSW 20.7 mph 34.5 mph 0.04 in   Overcast
3:55 AM 48.2 °F - 42.8 °F 82% 29.41 in 7.0 mi WSW 19.6 mph 35.7 mph 0.04 in Rain Light Rain
4:15 AM 48.2 °F - 42.8 °F 82% 29.42 in 10.0 mi WSW 24.2 mph 32.2 mph N/A   Overcast
4:35 AM 48.2 °F - 42.8 °F 82% 29.44 in 7.0 mi WSW 29.9 mph 38.0 mph N/A Rain Light Rain
5:15 AM 46.4 °F 39.8 °F 41.0 °F 81% 29.48 in 5.0 mi West 16.1 mph 29.9 mph 0.02 in Rain Light Rain
5:35 AM 46.4 °F 38.7 °F 42.8 °F 87% 29.51 in 5.0 mi WSW 20.7 mph 39.1 mph 0.05 in Rain Light Rain
5:55 AM 46.4 °F 38.5 °F 42.8 °F 87% 29.53 in 7.0 mi WSW 21.9 mph 34.5 mph 0.06 in Rain Light Rain
6:15 AM 44.6 °F 37.2 °F 41.0 °F 87% 29.56 in 7.0 mi West 17.3 mph 29.9 mph 0.02 in Rain Light Rain
6:35 AM 44.6 °F 35.9 °F 41.0 °F 87% 29.57 in 7.0 mi West 23.0 mph 33.4 mph 0.03 in Rain Light Rain
6:55 AM 46.4 °F 39.8 °F 39.2 °F 76% 29.59 in 7.0 mi WSW 16.1 mph 28.8 mph 0.03 in   Drizzle
7:15 AM 44.6 °F 36.9 °F 39.2 °F 81% 29.62 in 4.0 mi West 18.4 mph 39.1 mph 0.01 in Rain Light Rain
7:35 AM 44.6 °F 37.2 °F 39.2 °F 81% 29.63 in 10.0 mi West 17.3 mph 23.0 mph 0.01 in Rain Light Rain
7:55 AM 44.6 °F 37.2 °F 37.4 °F 76% 29.65 in 10.0 mi West 17.3 mph 27.6 mph 0.01 in   Overcast
8:15 AM 46.4 °F 39.8 °F 37.4 °F 71% 29.66 in 10.0 mi West 16.1 mph 25.3 mph N/A   Overcast
8:35 AM 44.6 °F 38.4 °F 37.4 °F 76% 29.68 in 10.0 mi WSW 12.7 mph 21.9 mph N/A   Overcast
8:55 AM 44.6 °F 40.2 °F 37.4 °F 76% 29.69 in 7.0 mi WSW 8.1 mph 18.4 mph 0.01 in   Overcast
9:15 AM 44.6 °F 36.4 °F 37.4 °F 76% 29.73 in 10.0 mi West 20.7 mph 35.7 mph N/A   Overcast
9:35 AM 44.6 °F 39.2 °F 37.4 °F 76% 29.74 in 10.0 mi WSW 10.4 mph 16.1 mph N/A   Overcast
9:55 AM 44.6 °F 39.2 °F 35.6 °F 71% 29.75 in 10.0 mi WSW 10.4 mph 20.7 mph N/A   Overcast
10:15 AM 44.6 °F 40.2 °F 35.6 °F 71% 29.75 in 10.0 mi West 8.1 mph - N/A   Mostly Cloudy
10:35 AM 42.8 °F 38.0 °F 37.4 °F 81% 29.79 in 7.0 mi WNW 8.1 mph 18.4 mph N/A   Overcast
10:55 AM 46.4 °F 39.8 °F 33.8 °F 62% 29.80 in 10.0 mi West 16.1 mph 23.0 mph N/A   Mostly Cloudy
11:15 AM 44.6 °F 35.9 °F 35.6 °F 71% 29.82 in 7.0 mi West 23.0 mph 34.5 mph N/A Rain Rain
11:35 AM 42.8 °F 36.6 °F 35.6 °F 76% 29.84 in 10.0 mi West 11.5 mph 17.3 mph N/A   Mostly Cloudy
11:55 AM 42.8 °F 40.1 °F 35.6 °F 76% 29.83 in 10.0 mi South 4.6 mph - N/A   Mostly Cloudy
12:15 PM 42.8 °F 36.6 °F 37.4 °F 81% 29.84 in 7.0 mi WSW 11.5 mph 17.3 mph N/A Rain Light Rain
12:35 PM 44.6 °F 37.2 °F 35.6 °F 71% 29.85 in 10.0 mi West 17.3 mph 20.7 mph N/A   Overcast
12:55 PM 46.4 °F 41.9 °F 33.8 °F 62% 29.85 in 10.0 mi West 9.2 mph 18.4 mph N/A   Mostly Cloudy
1:15 PM 46.4 °F 39.2 °F 33.8 °F 62% 29.86 in 10.0 mi West 18.4 mph 25.3 mph N/A   Mostly Cloudy
1:35 PM 44.6 °F 39.2 °F 37.4 °F 76% 29.87 in 10.0 mi West 10.4 mph - N/A   Scattered Clouds
1:55 PM 44.6 °F 38.4 °F 35.6 °F 71% 29.87 in 10.0 mi West 12.7 mph 23.0 mph N/A   Scattered Clouds
2:15 PM 44.6 °F 37.8 °F 33.8 °F 66% 29.88 in 10.0 mi WNW 15.0 mph 20.7 mph N/A   Mostly Cloudy
2:35 PM 42.8 °F 32.9 °F 33.8 °F 70% 29.90 in 10.0 mi WSW 26.5 mph 34.5 mph N/A   Light Drizzle
2:55 PM 41.0 °F 35.8 °F 35.6 °F 81% 29.88 in 10.0 mi South 8.1 mph - N/A   Mostly Cloudy
5:35 PM 41.0 °F - 33.8 °F 76% 29.92 in 10.0 mi Calm Calm - N/A   Scattered Clouds
5:55 PM 39.2 °F 37.0 °F 33.8 °F 81% 29.93 in 10.0 mi SW 3.5 mph - N/A   Mostly Cloudy
6:15 PM 41.0 °F 36.4 °F 35.6 °F 81% 29.92 in 10.0 mi ESE 6.9 mph - 0.01 in   Overcast
6:35 PM 39.2 °F 35.9 °F 35.6 °F 87% 29.94 in 10.0 mi SSE 4.6 mph - 0.01 in   Overcast
6:55 PM 41.0 °F 39.0 °F 33.8 °F 76% 29.94 in 10.0 mi ESE 3.5 mph - 0.01 in   Overcast
7:15 PM 39.2 °F 35.0 °F 35.6 °F 87% 29.94 in 10.0 mi ESE 5.8 mph - N/A   Mostly Cloudy
7:35 PM 39.2 °F 37.0 °F 35.6 °F 87% 29.94 in 10.0 mi SE 3.5 mph - N/A   Overcast
7:55 PM 41.0 °F 39.0 °F 35.6 °F 81% 29.95 in 10.0 mi SW 3.5 mph - N/A   Overcast
8:15 PM 41.0 °F 38.0 °F 33.8 °F 76% 29.96 in 10.0 mi SSE 4.6 mph - N/A   Overcast
8:35 PM 39.2 °F 33.0 °F 35.6 °F 87% 29.96 in 10.0 mi SSE 9.2 mph - N/A   Overcast
8:55 PM 39.2 °F 33.6 °F 35.6 °F 87% 29.96 in 10.0 mi SE 8.1 mph - N/A   Overcast
9:15 PM 39.2 °F 33.6 °F 35.6 °F 87% 29.96 in 10.0 mi SSE 8.1 mph - N/A   Overcast
9:35 PM 39.2 °F 33.6 °F 35.6 °F 87% 29.96 in 10.0 mi SSE 8.1 mph - N/A   Mostly Cloudy
9:55 PM 39.2 °F 32.5 °F 35.6 °F 87% 29.96 in 10.0 mi SSE 10.4 mph - N/A Rain Light Rain
10:15 PM 39.2 °F 32.0 °F 35.6 °F 87% 29.96 in 10.0 mi South 11.5 mph - N/A Rain Light Rain
10:35 PM 37.4 °F 33.8 °F 35.6 °F 93% 29.97 in 10.0 mi South 4.6 mph - N/A   Mostly Cloudy
10:55 PM 37.4 °F 32.8 °F 35.6 °F 93% 29.97 in 10.0 mi SE 5.8 mph - N/A   Overcast
11:15 PM 39.2 °F 33.6 °F 35.6 °F 87% 29.98 in 7.0 mi SSE 8.1 mph - N/A Rain Light Rain
11:35 PM 37.4 °F 31.4 °F 35.6 °F 93% 29.98 in 10.0 mi SSE 8.1 mph - N/A   Mostly Cloudy
11:55 PM 37.4 °F 32.1 °F 35.6 °F 93% 29.98 in 10.0 mi SSE 6.9 mph - N/A   Mostly Cloudy